| time (UTC) | temp C | wind direction | speed KPH | gust KPH | rain 1hr cm | rain 24hr cm | rain mn cm | humidity % | barometer mb |
| 20260506223503 | 28 | 233 | 0.0 | 8.0 | 0.00 | 0.00 | 0.00 | 53 | 1012.9 |
| 20260506223024 | 28 | 239 | 0.0 | 8.0 | 0.00 | 0.00 | 0.00 | 52 | 1012.8 |
| 20260506222503 | 28 | 255 | 0.0 | 1.6 | 0.00 | 0.00 | 0.00 | 52 | 1012.7 |
| 20260506222003 | 28 | 251 | 0.0 | 6.4 | 0.00 | 0.00 | 0.00 | 52 | 1012.6 |
| 20260506221503 | 28 | 248 | 0.0 | 6.4 | 0.00 | 0.00 | 0.00 | 51 | 1012.6 |
| 20260506221024 | 28 | 235 | 0.0 | 3.2 | 0.00 | 0.00 | 0.00 | 51 | 1012.5 |
| 20260506220503 | 29 | 251 | 0.0 | 6.4 | 0.00 | 0.00 | 0.00 | 50 | 1012.4 |
| 20260506220003 | 29 | 241 | 1.6 | 11.3 | 0.00 | 0.00 | 0.00 | 49 | 1012.4 |
| 20260506215503 | 29 | 242 | 1.6 | 11.3 | 0.00 | 0.00 | 0.00 | 49 | 1012.5 |
| 20260506215003 | 30 | 263 | 0.0 | 4.8 | 0.00 | 0.00 | 0.00 | 52 | 1012.4 |
| 20260506214503 | 29 | 265 | 0.0 | 4.8 | 0.00 | 0.00 | 0.00 | 51 | 1012.4 |
| 20260506214003 | 29 | 245 | 1.6 | 16.1 | 0.00 | 0.00 | 0.00 | 50 | 1012.4 |
| 20260506213503 | 29 | 250 | 1.6 | 16.1 | 0.00 | 0.00 | 0.00 | 50 | 1012.5 |
| 20260506213003 | 30 | 238 | 1.6 | 11.3 | 0.00 | 0.00 | 0.00 | 48 | 1012.6 |
| 20260506212524 | 30 | 233 | 1.6 | 11.3 | 0.00 | 0.00 | 0.00 | 49 | 1012.6 |
| 20260506212003 | 30 | 265 | 1.6 | 9.7 | 0.00 | 0.00 | 0.00 | 50 | 1012.8 |
| 20260506211503 | 30 | 214 | 1.6 | 14.5 | 0.00 | 0.00 | 0.00 | 48 | 1013.0 |
| 20260506211003 | 30 | 204 | 1.6 | 14.5 | 0.00 | 0.00 | 0.00 | 48 | 1013.1 |
| 20260506210503 | 30 | 216 | 0.0 | 8.0 | 0.00 | 0.00 | 0.00 | 47 | 1013.1 |
| 20260506210003 | 30 | 254 | 0.0 | 4.8 | 0.00 | 0.00 | 0.00 | 46 | 1013.0 |
| 20260506205503 | 30 | 248 | 0.0 | 6.4 | 0.00 | 0.00 | 0.00 | 45 | 1012.9 |
| 20260506205003 | 30 | 236 | 1.6 | 9.7 | 0.00 | 0.00 | 0.00 | 46 | 1012.8 |
| 20260506204503 | 30 | 230 | 1.6 | 9.7 | 0.00 | 0.00 | 0.00 | 47 | 1013.0 |
| 20260506204003 | 30 | 216 | 1.6 | 6.4 | 0.00 | 0.00 | 0.00 | 46 | 1013.1 |
| 20260506203524 | 30 | 208 | 0.0 | 4.8 | 0.00 | 0.00 | 0.00 | 45 | 1013.2 |
| 20260506203003 | 30 | 216 | 0.0 | 4.8 | 0.00 | 0.00 | 0.00 | 45 | 1013.5 |
| 20260506202503 | 30 | 208 | 1.6 | 14.5 | 0.00 | 0.00 | 0.00 | 45 | 1013.5 |
| 20260506202003 | 31 | 217 | 1.6 | 14.5 | 0.00 | 0.00 | 0.00 | 44 | 1013.6 |
| 20260506201503 | 31 | 218 | 1.6 | 14.5 | 0.00 | 0.00 | 0.00 | 44 | 1013.6 |
| 20260506201003 | 30 | 215 | 1.6 | 11.3 | 0.00 | 0.00 | 0.00 | 43 | 1013.7 |
| 20260506200503 | 30 | 222 | 1.6 | 11.3 | 0.00 | 0.00 | 0.00 | 44 | 1013.9 |
| 20260506200003 | 31 | 219 | 1.6 | 8.0 | 0.00 | 0.00 | 0.00 | 44 | 1014.0 |
| 20260506195503 | 31 | 233 | 1.6 | 11.3 | 0.00 | 0.00 | 0.00 | 44 | 1014.0 |
| 20260506195003 | 31 | 241 | 1.6 | 11.3 | 0.00 | 0.00 | 0.00 | 42 | 1014.1 |
| 20260506194503 | 31 | 232 | 1.6 | 12.9 | 0.00 | 0.00 | 0.00 | 44 | 1014.2 |
| 20260506194003 | 31 | 230 | 1.6 | 12.9 | 0.00 | 0.00 | 0.00 | 41 | 1014.3 |
| 20260506193503 | 31 | 230 | 1.6 | 11.3 | 0.00 | 0.00 | 0.00 | 42 | 1014.2 |
| 20260506193003 | 31 | 232 | 3.2 | 11.3 | 0.00 | 0.00 | 0.00 | 40 | 1014.3 |
| 20260506192503 | 31 | 232 | 1.6 | 14.5 | 0.00 | 0.00 | 0.00 | 41 | 1014.3 |
| 20260506192003 | 31 | 229 | 1.6 | 14.5 | 0.00 | 0.00 | 0.00 | 41 | 1014.4 |
| 20260506191503 | 31 | 244 | 1.6 | 9.7 | 0.00 | 0.00 | 0.00 | 42 | 1014.4 |
| 20260506191003 | 31 | 242 | 1.6 | 11.3 | 0.00 | 0.00 | 0.00 | 41 | 1014.4 |
| 20260506190503 | 31 | 227 | 1.6 | 11.3 | 0.00 | 0.00 | 0.00 | 44 | 1014.5 |
| 20260506190024 | 31 | 235 | 1.6 | 12.9 | 0.00 | 0.00 | 0.00 | 44 | 1014.6 |
| 20260506185503 | 31 | 226 | 1.6 | 12.9 | 0.00 | 0.00 | 0.00 | 45 | 1014.6 |
| 20260506185024 | 31 | 194 | 1.6 | 9.7 | 0.00 | 0.00 | 0.00 | 45 | 1014.5 |
| 20260506184503 | 31 | 199 | 1.6 | 11.3 | 0.00 | 0.00 | 0.00 | 45 | 1014.5 |
| 20260506184003 | 30 | 224 | 1.6 | 12.9 | 0.00 | 0.00 | 0.00 | 45 | 1014.6 |
| 20260506183503 | 30 | 235 | 1.6 | 12.9 | 0.00 | 0.00 | 0.00 | 46 | 1014.6 |
| 20260506183024 | 30 | 215 | 1.6 | 11.3 | 0.00 | 0.00 | 0.00 | 45 | 1014.7 |
| 20260506182524 | 30 | 222 | 1.6 | 11.3 | 0.00 | 0.00 | 0.00 | 46 | 1014.6 |
| 20260506182003 | 30 | 220 | 1.6 | 8.0 | 0.00 | 0.00 | 0.00 | 47 | 1014.8 |
| 20260506181503 | 29 | 230 | 1.6 | 8.0 | 0.00 | 0.00 | 0.00 | 48 | 1014.7 |
| 20260506181003 | 28 | 232 | 1.6 | 8.0 | 0.00 | 0.00 | 0.00 | 49 | 1014.9 |
| 20260506180503 | 28 | 218 | 1.6 | 8.0 | 0.00 | 0.00 | 0.00 | 48 | 1015.0 |
| 20260506180004 | 28 | 227 | 1.6 | 11.3 | 0.00 | 0.00 | 0.00 | 49 | 1014.9 |
| 20260506175503 | 28 | 235 | 3.2 | 11.3 | 0.00 | 0.00 | 0.00 | 50 | 1015.0 |
| 20260506175003 | 28 | 244 | 3.2 | 12.9 | 0.00 | 0.00 | 0.00 | 49 | 1015.1 |
| 20260506174503 | 28 | 243 | 1.6 | 12.9 | 0.00 | 0.00 | 0.00 | 52 | 1015.2 |
| 20260506174003 | 27 | 101 | 0.0 | 4.8 | 0.00 | 0.00 | 0.00 | 51 | 1015.3 |
| 20260506173503 | 27 | 131 | 0.0 | 8.0 | 0.00 | 0.00 | 0.00 | 52 | 1015.4 |
| 20260506173003 | 27 | 197 | 0.0 | 8.0 | 0.00 | 0.00 | 0.00 | 54 | 1015.6 |
| 20260506172503 | 27 | 199 | 0.0 | 8.0 | 0.00 | 0.00 | 0.00 | 54 | 1015.7 |
| 20260506172003 | 27 | 209 | 1.6 | 11.3 | 0.00 | 0.00 | 0.00 | 52 | 1015.8 |
| 20260506171503 | 27 | 219 | 0.0 | 11.3 | 0.00 | 0.00 | 0.00 | 54 | 1015.8 |
| 20260506171024 | 27 | 206 | 0.0 | 11.3 | 0.00 | 0.00 | 0.00 | 54 | 1015.9 |
| 20260506170503 | 27 | 193 | 0.0 | 6.4 | 0.00 | 0.00 | 0.00 | 57 | 1015.9 |
| 20260506170003 | 26 | 203 | 0.0 | 6.4 | 0.00 | 0.00 | 0.00 | 58 | 1016.2 |
| 20260506165503 | 26 | 224 | 1.6 | 6.4 | 0.00 | 0.00 | 0.00 | 62 | 1016.2 |
| 20260506165003 | 25 | 239 | 1.6 | 9.7 | 0.00 | 0.00 | 0.00 | 61 | 1016.2 |
| 20260506164503 | 25 | 261 | 0.0 | 9.7 | 0.00 | 0.00 | 0.00 | 63 | 1016.3 |
| 20260506164003 | 25 | 311 | 0.0 | 1.6 | 0.00 | 0.00 | 0.00 | 63 | 1016.6 |
| 20260506163503 | 25 | 287 | 0.0 | 3.2 | 0.00 | 0.00 | 0.00 | 66 | 1016.6 |
| 20260506163003 | 25 | 279 | 0.0 | 3.2 | 0.00 | 0.00 | 0.00 | 65 | 1016.7 |
| 20260506162503 | 25 | 209 | 0.0 | 1.6 | 0.00 | 0.00 | 0.00 | 63 | 1016.7 |
| 20260506162003 | 25 | 211 | 0.0 | 8.0 | 0.00 | 0.00 | 0.00 | 63 | 1016.9 |
| 20260506161524 | 25 | 230 | 1.6 | 9.7 | 0.00 | 0.00 | 0.00 | 62 | 1016.9 |
| 20260506161024 | 25 | 238 | 1.6 | 9.7 | 0.00 | 0.00 | 0.00 | 63 | 1016.8 |
| 20260506160503 | 25 | 220 | 1.6 | 8.0 | 0.00 | 0.00 | 0.00 | 64 | 1016.9 |
| 20260506160003 | 24 | 225 | 1.6 | 11.3 | 0.00 | 0.00 | 0.00 | 67 | 1017.0 |
| 20260506155503 | 24 | 231 | 0.0 | 11.3 | 0.00 | 0.00 | 0.00 | 70 | 1017.0 |
| 20260506155024 | 23 | 142 | 0.0 | 1.6 | 0.00 | 0.00 | 0.00 | 72 | 1016.9 |
| 20260506154524 | 23 | 143 | 0.0 | 1.6 | 0.00 | 0.00 | 0.00 | 72 | 1016.9 |
| 20260506154003 | 23 | 0 | 0.0 | 0.0 | 0.00 | 0.00 | 0.00 | 72 | 1016.9 |
| 20260506153503 | 23 | 230 | 0.0 | 11.3 | 0.00 | 0.00 | 0.00 | 72 | 1016.9 |
| 20260506153003 | 23 | 231 | 0.0 | 11.3 | 0.00 | 0.00 | 0.00 | 72 | 1017.0 |
| 20260506152503 | 23 | 243 | 1.6 | 14.5 | 0.00 | 0.00 | 0.00 | 73 | 1016.9 |
| 20260506152003 | 23 | 233 | 3.2 | 14.5 | 0.00 | 0.00 | 0.00 | 73 | 1016.9 |
| 20260506151503 | 23 | 229 | 1.6 | 11.3 | 0.00 | 0.00 | 0.00 | 72 | 1017.0 |
| 20260506151023 | 22 | 243 | 0.0 | 4.8 | 0.00 | 0.00 | 0.00 | 74 | 1016.8 |
| 20260506150523 | 22 | 219 | 0.0 | 6.4 | 0.00 | 0.00 | 0.00 | 74 | 1016.8 |
| 20260506150001 | 22 | 241 | 1.6 | 6.4 | 0.00 | 0.00 | 0.00 | 76 | 1016.7 |
| 20260506145501 | 22 | 263 | 0.0 | 4.8 | 0.00 | 0.00 | 0.00 | 75 | 1016.7 |
| 20260506145022 | 22 | 257 | 1.6 | 6.4 | 0.00 | 0.00 | 0.00 | 76 | 1016.5 |
| 20260506144502 | 21 | 239 | 1.6 | 11.3 | 0.00 | 0.00 | 0.00 | 76 | 1016.6 |
| 20260506144001 | 21 | 230 | 0.0 | 11.3 | 0.00 | 0.00 | 0.00 | 78 | 1016.5 |
| 20260506143501 | 21 | 238 | 0.0 | 8.0 | 0.00 | 0.00 | 0.00 | 78 | 1016.5 |
| 20260506143001 | 21 | 238 | 0.0 | 8.0 | 0.00 | 0.00 | 0.00 | 78 | 1016.5 |
| 20260506142502 | 20 | 200 | 0.0 | 1.6 | 0.00 | 0.00 | 0.00 | 79 | 1016.4 |
| 20260506142002 | 20 | 258 | 0.0 | 3.2 | 0.00 | 0.00 | 0.00 | 79 | 1016.5 |
| 20260506141502 | 20 | 285 | 0.0 | 3.2 | 0.00 | 0.00 | 0.00 | 79 | 1016.4 |
| 20260506141002 | 20 | 286 | 0.0 | 3.2 | 0.00 | 0.00 | 0.00 | 80 | 1016.3 |
| 20260506140502 | 20 | 116 | 0.0 | 3.2 | 0.00 | 0.00 | 0.00 | 80 | 1016.3 |
| 20260506140002 | 19 | 118 | 0.0 | 3.2 | 0.00 | 0.00 | 0.00 | 81 | 1016.2 |
| 20260506135502 | 19 | 130 | 0.0 | 1.6 | 0.00 | 0.00 | 0.00 | 81 | 1016.3 |
| 20260506135002 | 18 | 130 | 0.0 | 1.6 | 0.00 | 0.00 | 0.00 | 82 | 1016.3 |
| 20260506134502 | 18 | 128 | 0.0 | 1.6 | 0.00 | 0.00 | 0.00 | 82 | 1016.4 |
| 20260506134001 | 18 | 128 | 0.0 | 1.6 | 0.00 | 0.00 | 0.00 | 82 | 1016.4 |
| 20260506133502 | 18 | 0 | 0.0 | 0.0 | 0.00 | 0.00 | 0.00 | 83 | 1016.5 |
| 20260506133023 | 18 | 0 | 0.0 | 0.0 | 0.00 | 0.00 | 0.00 | 82 | 1016.4 |
| 20260506132502 | 18 | 0 | 0.0 | 0.0 | 0.00 | 0.00 | 0.00 | 82 | 1016.4 |
| 20260506132001 | 18 | 0 | 0.0 | 0.0 | 0.00 | 0.00 | 0.00 | 82 | 1016.4 |
| 20260506131522 | 17 | 130 | 0.0 | 1.6 | 0.00 | 0.00 | 0.00 | 82 | 1016.3 |
| 20260506131002 | 17 | 130 | 0.0 | 1.6 | 0.00 | 0.00 | 0.00 | 83 | 1016.2 |
| 20260506130501 | 17 | 0 | 0.0 | 0.0 | 0.00 | 0.00 | 0.00 | 83 | 1016.2 |
| 20260506130002 | 17 | 0 | 0.0 | 0.0 | 0.00 | 0.00 | 0.00 | 83 | 1016.1 |
| 20260506125501 | 17 | 0 | 0.0 | 0.0 | 0.00 | 0.00 | 0.00 | 84 | 1016.0 |
| 20260506125001 | 17 | 0 | 0.0 | 0.0 | 0.00 | 0.00 | 0.00 | 84 | 1015.9 |
| 20260506124502 | 17 | 0 | 0.0 | 0.0 | 0.00 | 0.00 | 0.00 | 84 | 1016.0 |
| 20260506124001 | 17 | 0 | 0.0 | 0.0 | 0.00 | 0.00 | 0.00 | 84 | 1015.9 |
| 20260506123522 | 17 | 0 | 0.0 | 0.0 | 0.00 | 0.00 | 0.00 | 84 | 1015.9 |
| 20260506123023 | 16 | 0 | 0.0 | 0.0 | 0.00 | 0.00 | 0.00 | 84 | 1015.8 |
| 20260506122502 | 16 | 0 | 0.0 | 0.0 | 0.00 | 0.00 | 0.00 | 84 | 1015.8 |
| 20260506122023 | 16 | 0 | 0.0 | 0.0 | 0.00 | 0.00 | 0.00 | 84 | 1015.8 |
| 20260506121501 | 16 | 0 | 0.0 | 0.0 | 0.00 | 0.00 | 0.00 | 84 | 1015.9 |
| 20260506121002 | 16 | 0 | 0.0 | 0.0 | 0.00 | 0.00 | 0.00 | 84 | 1015.9 |
| 20260506120501 | 16 | 0 | 0.0 | 0.0 | 0.00 | 0.00 | 0.00 | 84 | 1015.8 |
| 20260506120001 | 16 | 0 | 0.0 | 0.0 | 0.00 | 0.00 | 0.00 | 84 | 1015.7 |
| 20260506115501 | 16 | 0 | 0.0 | 0.0 | 0.00 | 0.00 | 0.00 | 84 | 1015.5 |
| 20260506115002 | 16 | 0 | 0.0 | 0.0 | 0.00 | 0.00 | 0.00 | 85 | 1015.5 |
| 20260506114501 | 16 | 0 | 0.0 | 0.0 | 0.00 | 0.00 | 0.00 | 84 | 1015.4 |
| 20260506114001 | 16 | 0 | 0.0 | 0.0 | 0.00 | 0.00 | 0.00 | 84 | 1015.4 |
| 20260506113502 | 16 | 0 | 0.0 | 0.0 | 0.00 | 0.00 | 0.00 | 84 | 1015.3 |
| 20260506113001 | 16 | 0 | 0.0 | 0.0 | 0.00 | 0.00 | 0.00 | 84 | 1015.1 |
| 20260506112501 | 16 | 0 | 0.0 | 0.0 | 0.00 | 0.00 | 0.00 | 84 | 1015.0 |
| 20260506112002 | 16 | 0 | 0.0 | 0.0 | 0.00 | 0.00 | 0.00 | 84 | 1014.8 |
| 20260506111501 | 16 | 0 | 0.0 | 0.0 | 0.00 | 0.00 | 0.00 | 83 | 1014.7 |
| 20260506111001 | 16 | 0 | 0.0 | 0.0 | 0.00 | 0.00 | 0.00 | 84 | 1014.7 |
| 20260506110502 | 16 | 0 | 0.0 | 0.0 | 0.00 | 0.00 | 0.00 | 83 | 1014.6 |
| 20260506110002 | 16 | 0 | 0.0 | 0.0 | 0.00 | 0.00 | 0.00 | 83 | 1014.6 |
| 20260506105502 | 16 | 0 | 0.0 | 0.0 | 0.00 | 0.00 | 0.00 | 83 | 1014.5 |
| 20260506105002 | 16 | 0 | 0.0 | 0.0 | 0.00 | 0.00 | 0.00 | 83 | 1014.3 |
| 20260506104502 | 16 | 0 | 0.0 | 0.0 | 0.00 | 0.00 | 0.00 | 83 | 1014.4 |
| 20260506104002 | 16 | 0 | 0.0 | 0.0 | 0.00 | 0.00 | 0.00 | 83 | 1014.6 |
| 20260506103501 | 16 | 0 | 0.0 | 0.0 | 0.00 | 0.00 | 0.00 | 83 | 1014.4 |
| 20260506103001 | 16 | 0 | 0.0 | 0.0 | 0.00 | 0.00 | 0.00 | 83 | 1014.6 |
| 20260506102502 | 16 | 0 | 0.0 | 0.0 | 0.00 | 0.00 | 0.00 | 83 | 1014.6 |
| 20260506102001 | 16 | 0 | 0.0 | 0.0 | 0.00 | 0.00 | 0.00 | 83 | 1014.4 |
| 20260506101502 | 16 | 0 | 0.0 | 0.0 | 0.00 | 0.00 | 0.00 | 83 | 1014.5 |
| 20260506101002 | 15 | 0 | 0.0 | 0.0 | 0.00 | 0.00 | 0.00 | 83 | 1014.3 |
| 20260506100502 | 16 | 0 | 0.0 | 0.0 | 0.00 | 0.00 | 0.00 | 83 | 1014.2 |
| 20260506100023 | 15 | 0 | 0.0 | 0.0 | 0.00 | 0.00 | 0.00 | 84 | 1014.0 |
| 20260506095523 | 15 | 0 | 0.0 | 0.0 | 0.00 | 0.00 | 0.00 | 83 | 1014.2 |
| 20260506095002 | 16 | 0 | 0.0 | 0.0 | 0.00 | 0.00 | 0.00 | 83 | 1014.2 |
| 20260506094502 | 16 | 0 | 0.0 | 0.0 | 0.00 | 0.00 | 0.00 | 83 | 1014.1 |
| 20260506094002 | 16 | 0 | 0.0 | 0.0 | 0.00 | 0.00 | 0.00 | 82 | 1014.1 |
| 20260506093502 | 16 | 0 | 0.0 | 0.0 | 0.00 | 0.00 | 0.00 | 82 | 1014.2 |
| 20260506093002 | 16 | 0 | 0.0 | 0.0 | 0.00 | 0.00 | 0.00 | 82 | 1014.2 |
| 20260506092522 | 16 | 0 | 0.0 | 0.0 | 0.00 | 0.00 | 0.00 | 82 | 1014.3 |
| 20260506092023 | 16 | 0 | 0.0 | 0.0 | 0.00 | 0.00 | 0.00 | 82 | 1014.3 |
| 20260506091502 | 16 | 111 | 0.0 | 1.6 | 0.00 | 0.00 | 0.00 | 82 | 1014.2 |
| 20260506091001 | 16 | 111 | 0.0 | 1.6 | 0.00 | 0.00 | 0.00 | 82 | 1014.4 |
| 20260506090502 | 16 | 0 | 0.0 | 0.0 | 0.00 | 0.00 | 0.00 | 82 | 1014.4 |
| 20260506090002 | 16 | 0 | 0.0 | 0.0 | 0.00 | 0.00 | 0.00 | 82 | 1014.5 |
| 20260506085523 | 16 | 0 | 0.0 | 0.0 | 0.00 | 0.00 | 0.00 | 82 | 1014.4 |
| 20260506085001 | 16 | 0 | 0.0 | 0.0 | 0.00 | 0.00 | 0.00 | 81 | 1014.7 |
| 20260506084501 | 16 | 0 | 0.0 | 0.0 | 0.00 | 0.00 | 0.00 | 81 | 1014.6 |
| 20260506084002 | 16 | 0 | 0.0 | 0.0 | 0.00 | 0.00 | 0.00 | 81 | 1014.7 |
| 20260506083523 | 16 | 0 | 0.0 | 0.0 | 0.00 | 0.00 | 0.00 | 81 | 1014.9 |
| 20260506083002 | 16 | 0 | 0.0 | 0.0 | 0.00 | 0.00 | 0.00 | 80 | 1015.0 |
| 20260506082502 | 16 | 0 | 0.0 | 0.0 | 0.00 | 0.00 | 0.00 | 80 | 1014.8 |
| 20260506082002 | 16 | 0 | 0.0 | 0.0 | 0.00 | 0.00 | 0.00 | 80 | 1014.7 |
| 20260506081522 | 16 | 0 | 0.0 | 0.0 | 0.00 | 0.00 | 0.00 | 80 | 1014.7 |
| 20260506081002 | 16 | 0 | 0.0 | 0.0 | 0.00 | 0.00 | 0.00 | 80 | 1014.7 |
| 20260506080502 | 16 | 0 | 0.0 | 0.0 | 0.00 | 0.00 | 0.00 | 80 | 1014.7 |
| 20260506073502 | 17 | 0 | 0.0 | 0.0 | 0.00 | 0.00 | 0.00 | 79 | 1014.9 |
| 20260506073002 | 17 | 0 | 0.0 | 0.0 | 0.00 | 0.00 | 0.00 | 80 | 1014.9 |
| 20260506072502 | 17 | 0 | 0.0 | 0.0 | 0.00 | 0.00 | 0.00 | 80 | 1014.9 |
| 20260506072023 | 17 | 0 | 0.0 | 0.0 | 0.00 | 0.00 | 0.00 | 79 | 1014.9 |
| 20260506071502 | 17 | 0 | 0.0 | 0.0 | 0.00 | 0.00 | 0.00 | 79 | 1014.8 |
| 20260506071002 | 17 | 0 | 0.0 | 0.0 | 0.00 | 0.00 | 0.00 | 79 | 1014.9 |
| 20260506070523 | 17 | 0 | 0.0 | 0.0 | 0.00 | 0.00 | 0.00 | 78 | 1014.9 |
| 20260506062502 | 17 | 0 | 0.0 | 0.0 | 0.00 | 0.00 | 0.00 | 77 | 1014.3 |
| 20260506062002 | 17 | 0 | 0.0 | 0.0 | 0.00 | 0.00 | 0.00 | 77 | 1014.2 |
| 20260506061502 | 17 | 111 | 0.0 | 1.6 | 0.00 | 0.00 | 0.00 | 77 | 1014.2 |
| 20260506061002 | 17 | 111 | 0.0 | 1.6 | 0.00 | 0.00 | 0.00 | 77 | 1014.2 |
| 20260506060502 | 17 | 0 | 0.0 | 0.0 | 0.00 | 0.00 | 0.00 | 78 | 1014.4 |
| 20260506051002 | 16 | 0 | 0.0 | 0.0 | 0.00 | 0.00 | 0.00 | 81 | 1014.6 |
| 20260506050502 | 15 | 0 | 0.0 | 0.0 | 0.00 | 0.00 | 0.00 | 81 | 1014.9 |
| 20260506045002 | 15 | 0 | 0.0 | 0.0 | 0.00 | 0.00 | 0.00 | 81 | 1015.4 |
| 20260506044502 | 15 | 0 | 0.0 | 0.0 | 0.00 | 0.00 | 0.00 | 81 | 1015.3 |
| 20260506044002 | 15 | 0 | 0.0 | 0.0 | 0.00 | 0.00 | 0.00 | 81 | 1015.2 |
| 20260506043502 | 15 | 0 | 0.0 | 0.0 | 0.00 | 0.00 | 0.00 | 81 | 1015.1 |
| 20260506043002 | 15 | 0 | 0.0 | 0.0 | 0.00 | 0.00 | 0.00 | 80 | 1015.1 |
| 20260506042502 | 15 | 267 | 0.0 | 1.6 | 0.00 | 0.00 | 0.00 | 80 | 1015.1 |
| 20260506042002 | 15 | 267 | 0.0 | 1.6 | 0.00 | 0.00 | 0.00 | 80 | 1014.9 |
| 20260506041502 | 15 | 267 | 0.0 | 1.6 | 0.00 | 0.00 | 0.00 | 80 | 1014.9 |
| 20260506041002 | 15 | 267 | 0.0 | 1.6 | 0.00 | 0.00 | 0.00 | 79 | 1015.0 |
| 20260506040502 | 15 | 0 | 0.0 | 0.0 | 0.00 | 0.00 | 0.00 | 79 | 1014.8 |
| 20260506040024 | 15 | 0 | 0.0 | 0.0 | 0.00 | 0.00 | 0.00 | 78 | 1014.8 |
| 20260506035502 | 15 | 0 | 0.0 | 0.0 | 0.00 | 0.00 | 0.00 | 77 | 1014.8 |
| 20260506035002 | 16 | 0 | 0.0 | 0.0 | 0.00 | 0.00 | 0.00 | 77 | 1014.7 |
| 20260506034502 | 16 | 0 | 0.0 | 0.0 | 0.00 | 0.00 | 0.00 | 77 | 1014.6 |
| 20260506034002 | 16 | 0 | 0.0 | 0.0 | 0.00 | 0.00 | 0.00 | 77 | 1014.5 |
| 20260506033502 | 16 | 0 | 0.0 | 0.0 | 0.00 | 0.00 | 0.00 | 76 | 1014.6 |
| 20260506033002 | 16 | 0 | 0.0 | 0.0 | 0.00 | 0.00 | 0.00 | 76 | 1014.7 |
| 20260506032502 | 16 | 0 | 0.0 | 0.0 | 0.00 | 0.00 | 0.00 | 75 | 1014.8 |
| 20260506032002 | 16 | 0 | 0.0 | 0.0 | 0.00 | 0.00 | 0.00 | 75 | 1014.8 |
| 20260506031502 | 16 | 0 | 0.0 | 0.0 | 0.00 | 0.00 | 0.00 | 74 | 1014.9 |
| 20260506031002 | 16 | 0 | 0.0 | 0.0 | 0.00 | 0.00 | 0.00 | 73 | 1014.8 |
| 20260506030502 | 16 | 0 | 0.0 | 0.0 | 0.00 | 0.00 | 0.00 | 73 | 1014.8 |
| 20260506030002 | 17 | 0 | 0.0 | 0.0 | 0.00 | 0.00 | 0.00 | 73 | 1014.9 |
| 20260506025502 | 17 | 0 | 0.0 | 0.0 | 0.00 | 0.00 | 0.00 | 73 | 1014.8 |
| 20260506025002 | 17 | 0 | 0.0 | 0.0 | 0.00 | 0.00 | 0.00 | 73 | 1014.9 |
| 20260506024523 | 17 | 0 | 0.0 | 0.0 | 0.00 | 0.00 | 0.00 | 73 | 1014.9 |
| 20260506024002 | 17 | 0 | 0.0 | 0.0 | 0.00 | 0.00 | 0.00 | 73 | 1014.9 |
| 20260506023502 | 17 | 0 | 0.0 | 0.0 | 0.00 | 0.00 | 0.00 | 73 | 1014.8 |
| 20260506023002 | 17 | 0 | 0.0 | 0.0 | 0.00 | 0.00 | 0.00 | 72 | 1014.8 |
| 20260506022502 | 17 | 0 | 0.0 | 0.0 | 0.00 | 0.00 | 0.00 | 71 | 1014.7 |
| 20260506022002 | 17 | 0 | 0.0 | 0.0 | 0.00 | 0.00 | 0.00 | 72 | 1014.6 |
| 20260506021523 | 17 | 0 | 0.0 | 0.0 | 0.00 | 0.00 | 0.00 | 72 | 1014.7 |
| 20260506021002 | 17 | 0 | 0.0 | 0.0 | 0.00 | 0.00 | 0.00 | 72 | 1014.6 |
| 20260506020502 | 18 | 0 | 0.0 | 0.0 | 0.00 | 0.00 | 0.00 | 72 | 1014.6 |
| 20260506020002 | 18 | 0 | 0.0 | 0.0 | 0.00 | 0.00 | 0.00 | 70 | 1014.6 |
| 20260506015523 | 18 | 0 | 0.0 | 0.0 | 0.00 | 0.00 | 0.00 | 70 | 1014.5 |
| 20260506015002 | 18 | 0 | 0.0 | 0.0 | 0.00 | 0.00 | 0.00 | 70 | 1014.6 |
| 20260506014502 | 18 | 0 | 0.0 | 0.0 | 0.00 | 0.00 | 0.00 | 69 | 1014.5 |
| 20260506014002 | 18 | 0 | 0.0 | 0.0 | 0.00 | 0.00 | 0.00 | 68 | 1014.6 |
| 20260506013502 | 18 | 0 | 0.0 | 0.0 | 0.00 | 0.00 | 0.00 | 67 | 1014.5 |
| 20260506013002 | 19 | 0 | 0.0 | 0.0 | 0.00 | 0.00 | 0.00 | 67 | 1014.5 |
| 20260506012502 | 19 | 0 | 0.0 | 0.0 | 0.00 | 0.00 | 0.00 | 66 | 1014.6 |
| 20260506012002 | 20 | 0 | 0.0 | 0.0 | 0.00 | 0.00 | 0.00 | 65 | 1014.5 |
| 20260506011502 | 20 | 0 | 0.0 | 0.0 | 0.00 | 0.00 | 0.00 | 63 | 1014.5 |
| 20260506011002 | 20 | 0 | 0.0 | 0.0 | 0.00 | 0.00 | 0.00 | 63 | 1014.4 |
| 20260506010502 | 20 | 0 | 0.0 | 0.0 | 0.00 | 0.00 | 0.00 | 62 | 1014.5 |
| 20260506010002 | 21 | 0 | 0.0 | 0.0 | 0.00 | 0.00 | 0.00 | 62 | 1014.4 |
| 20260506005502 | 21 | 0 | 0.0 | 0.0 | 0.00 | 0.00 | 0.00 | 61 | 1014.4 |
| 20260506005002 | 21 | 0 | 0.0 | 0.0 | 0.00 | 0.00 | 0.00 | 61 | 1014.3 |
| 20260506004502 | 22 | 0 | 0.0 | 0.0 | 0.00 | 0.00 | 0.00 | 61 | 1014.3 |
| 20260506004002 | 22 | 0 | 0.0 | 0.0 | 0.00 | 0.00 | 0.00 | 60 | 1014.3 |
| 20260506003502 | 22 | 0 | 0.0 | 0.0 | 0.00 | 0.00 | 0.00 | 61 | 1014.1 |
| 20260506003002 | 22 | 0 | 0.0 | 0.0 | 0.00 | 0.00 | 0.00 | 57 | 1014.1 |
| 20260506002502 | 23 | 0 | 0.0 | 0.0 | 0.00 | 0.00 | 0.00 | 56 | 1014.1 |
| 20260506002002 | 23 | 0 | 0.0 | 0.0 | 0.00 | 0.00 | 0.00 | 55 | 1014.0 |
| 20260506001502 | 23 | 0 | 0.0 | 0.0 | 0.00 | 0.00 | 0.00 | 55 | 1014.0 |
| 20260506001002 | 23 | 0 | 0.0 | 0.0 | 0.00 | 0.00 | 0.00 | 55 | 1013.9 |
| 20260506000502 | 24 | 0 | 0.0 | 0.0 | 0.00 | 0.00 | 0.00 | 55 | 1013.8 |
| 20260506000002 | 24 | 0 | 0.0 | 0.0 | 0.00 | 0.00 | 0.00 | 54 | 1013.7 |
| 20260505235502 | 24 | 0 | 0.0 | 0.0 | 0.00 | 0.00 | 0.00 | 50 | 1013.6 |
| 20260505235002 | 25 | 0 | 0.0 | 0.0 | 0.00 | 0.00 | 0.00 | 50 | 1013.6 |
| 20260505234502 | 25 | 0 | 0.0 | 0.0 | 0.00 | 0.00 | 0.00 | 50 | 1013.7 |
| 20260505234002 | 25 | 0 | 0.0 | 0.0 | 0.00 | 0.00 | 0.00 | 49 | 1013.5 |
| 20260505233502 | 25 | 251 | 0.0 | 3.2 | 0.00 | 0.00 | 0.00 | 49 | 1013.5 |
| 20260505233023 | 25 | 251 | 0.0 | 3.2 | 0.00 | 0.00 | 0.00 | 48 | 1013.4 |
| 20260505232502 | 25 | 0 | 0.0 | 0.0 | 0.00 | 0.00 | 0.00 | 47 | 1013.4 |
| 20260505232002 | 25 | 100 | 0.0 | 3.2 | 0.00 | 0.00 | 0.00 | 48 | 1013.4 |
| 20260505231523 | 25 | 100 | 0.0 | 3.2 | 0.00 | 0.00 | 0.00 | 47 | 1013.4 |
| 20260505231002 | 26 | 102 | 0.0 | 1.6 | 0.00 | 0.00 | 0.00 | 46 | 1013.3 |
| 20260505230502 | 26 | 101 | 0.0 | 1.6 | 0.00 | 0.00 | 0.00 | 45 | 1013.3 |
| 20260505230002 | 26 | 95 | 0.0 | 1.6 | 0.00 | 0.00 | 0.00 | 45 | 1013.3 |
| 20260505225502 | 26 | 88 | 0.0 | 1.6 | 0.00 | 0.00 | 0.00 | 46 | 1013.4 |
| 20260505225002 | 26 | 90 | 0.0 | 3.2 | 0.00 | 0.00 | 0.00 | 45 | 1013.3 |
| 20260505224502 | 26 | 106 | 0.0 | 3.2 | 0.00 | 0.00 | 0.00 | 44 | 1013.3 |
| 20260505224002 | 26 | 211 | 0.0 | 6.4 | 0.00 | 0.00 | 0.00 | 45 | 1013.4 |